Temperature
23 22 22 21 20 20 22 25 27 27 27 27 27 26 25 24 23 22 22 21 22 21 21 20 20 20 20 20 20 19 19 19 19 19 19 19 19 19 18 18 18 18 18 18 18 18 18 18 18
23 22 22 21 20 21 23 26 27 28 28 27 26 26 25 24 23 22 21 21 22 22 21 21 20 20 20 20 20 19 19 19 19 19 19 19 18 18 18 18 18 18 18 18 18 18 18 18 18
23 22 22 19 21 22 25 27 27 28 28 28 26 26 25 23 22 22 22 22 22 22 21 21 21 20 20 20 20 19 19 19 19 19 18 18 18 18 18 18 18 18 18 18 18 18 18 18 17
23 22 21 20 21 24 26 27 28 28 28 27 26 25 24 24 24 23 22 22 22 22 21 21 21 20 20 20 20 19 19 19 19 18 18 18 18 18 18 18 18 18 18 18 18 18 18 18 17
23 22 20 20 23 26 28 29 29 28 27 26 25 24 23 24 24 23 22 22 22 21 21 21 21 21 20 20 20 19 19 19 18 18 18 18 18 18 18 18 18 18 18 18 18 18 18 17 17
23 21 21 21 24 27 29 30 29 28 27 26 25 23 23 23 24 23 22 22 22 22 21 21 21 20 20 20 20 19 19 19 19 18 18 18 18 18 18 18 18 18 18 18 18 18 18 17 17
23 21 21 23 24 27 29 30 29 27 26 26 25 22 22 22 23 22 22 21 21 22 21 21 20 20 20 20 20 19 19 19 19 18 18 18 18 18 18 18 18 18 18 18 18 18 18 17 17
25 21 22 23 25 27 30 31 30 28 27 26 26 23 22 22 22 21 21 21 21 21 21 21 20 20 20 20 19 19 19 19 19 18 18 18 18 18 18 18 18 18 18 18 18 18 18 17 17
25 21 21 23 26 28 30 30 29 28 27 26 25 25 25 23 22 21 20 20 20 20 21 21 20 20 20 19 19 19 19 19 18 18 18 18 18 18 18 18 18 18 18 18 18 18 18 17 17
25 21 23 26 28 29 30 30 29 27 26 25 25 25 24 22 21 21 20 20 20 20 20 20 20 20 20 19 19 19 19 18 18 18 18 18 18 18 18 18 18 18 18 18 18 18 18 17 17
25 23 25 27 29 30 29 29 29 27 25 25 24 24 23 22 21 21 21 20 20 20 20 20 20 20 20 19 19 19 19 18 18 18 18 18 18 18 18 18 18 18 17 18 17 17 17 17 17
26 26 28 29 30 30 29 29 28 27 27 27 26 25 23 22 21 21 20 20 20 20 20 20 20 20 20 19 19 19 19 18 18 18 18 18 18 17 18 18 17 17 17 17 17 17 17 17 17
26 27 29 29 30 30 29 28 27 27 27 26 25 24 23 22 21 21 21 20 20 20 20 20 20 20 19 19 19 19 19 18 18 18 18 18 18 17 17 17 17 17 17 17 17 17 17 17 17
27 27 28 29 29 30 28 27 27 26 26 25 24 23 23 22 22 21 20 20 20 20 19 19 19 19 19 19 19 19 18 18 18 18 18 18 18 18 18 17 17 17 17 17 17 17 17 17 17
28 26 26 27 29 29 28 27 26 27 26 24 23 23 22 22 22 21 21 21 20 20 19 19 19 19 19 19 19 18 18 18 18 18 18 17 17 18 18 17 17 17 17 17 17 17 17 17 17
25 25 25 27 28 29 28 26 26 26 25 24 23 22 22 22 22 21 21 21 20 20 19 19 18 18 18 18 18 18 18 18 18 18 18 17 17 17 17 17 17 17 17 17 17 17 17 17 17
24 23 24 26 28 28 27 25 26 26 25 23 23 22 22 21 21 21 21 20 20 19 19 19 18 18 18 18 18 18 18 18 18 18 17 17 17 17 17 17 17 17 17 17 17 17 17 17 17
22 24 25 26 27 28 26 25 25 25 25 23 22 21 21 21 21 21 21 20 20 19 19 18 18 18 18 18 18 17 17 17 17 17 17 17 17 17 17 17 17 17 17 17 17 17 17 17 17
24 25 25 26 28 27 26 25 25 25 24 22 21 21 21 21 21 20 20 20 20 19 19 18 18 18 18 18 18 17 17 17 17 17 17 17 17 17 17 17 17 17 17 17 17 17 17 17 17
25 25 25 26 27 27 25 25 24 24 23 23 21 21 20 20 20 20 20 19 19 19 19 18 18 18 18 18 18 18 18 17 17 17 17 17 17 17 17 17 17 17 17 17 17 17 17 17 17
25 25 25 26 27 26 25 23 23 23 23 22 22 21 21 21 20 20 19 19 19 19 19 18 18 18 18 18 18 17 17 17 17 17 17 17 17 17 17 17 17 17 17 17 16 16 17 17 17
25 26 27 27 25 23 24 22 22 22 22 22 21 21 20 20 20 20 20 19 19 19 19 18 18 18 18 18 18 18 17 17 17 17 17 17 17 17 17 17 17 17 17 16 16 16 16 16 16
26 27 27 27 24 22 22 22 21 21 21 20 20 20 20 20 20 20 20 19 19 19 18 18 18 17 17 17 17 17 17 17 17 17 17 17 17 17 17 17 17 16 16 16 16 16 16 16 16
28 27 25 22 20 21 22 22 21 19 20 20 20 20 20 20 20 20 19 19 18 18 18 18 17 17 17 17 17 17 17 17 17 17 17 17 17 17 17 17 16 16 16 16 16 16 16 16 16
26 23 21 22 20 20 21 21 20 20 21 21 20 20 20 20 20 19 19 18 18 18 18 17 17 17 17 17 17 17 17 17 17 17 17 17 17 17 17 17 16 16 16 16 16 16 16 16 16
25 22 21 22 21 20 21 20 20 21 21 21 21 21 20 20 20 20 19 18 18 18 18 17 17 17 17 17 17 17 17 17 17 17 17 17 17 17 17 17 16 16 16 16 16 16 16 16 16
25 24 21 20 21 20 20 20 20 20 20 21 21 20 19 20 20 20 19 19 18 18 18 18 17 17 17 17 17 17 17 17 17 17 17 17 17 17 17 16 16 16 16 16 16 16 16 16 16
26 24 20 20 21 21 20 20 20 20 20 20 20 19 19 19 20 20 19 19 18 18 18 17 17 17 17 17 17 17 17 17 17 17 17 17 17 17 17 16 16 16 16 16 16 16 16 16 16
26 25 22 19 20 20 20 20 21 20 20 20 20 20 20 20 20 19 19 19 18 18 18 17 17 17 17 17 17 17 17 17 17 17 17 17 17 17 17 17 16 16 16 16 16 16 16 16 16
26 24 21 21 21 19 19 20 22 20 20 20 20 20 20 20 20 19 19 18 18 18 17 17 17 17 17 17 17 17 17 17 17 17 17 17 17 16 16 16 16 16 16 16 16 16 16 16 16
Wind_Speed
7 6 2 0 3 3 3 4 5 6 5 8 11 11 9 5 4 4 6 17 20 18 18 21 22 22 22 21 20 20 19 19 18 18 17 17 17 17 17 17 16 16 16 16 16 16 16 16 17
5 4 1 3 4 3 4 3 6 7 9 12 12 11 8 5 6 10 9 17 21 18 18 20 23 22 22 21 21 20 19 18 18 17 17 17 17 17 17 16 16 16 15 15 15 15 15 15 15
3 2 2 2 1 3 4 2 7 7 10 11 7 6 5 6 9 8 12 21 19 16 18 22 24 23 22 22 21 20 19 18 18 17 17 16 16 16 16 16 16 16 15 15 14 14 14 14 14
1 2 2 1 6 9 7 8 5 8 7 9 9 6 3 4 7 12 21 21 19 15 18 23 25 24 23 22 21 20 19 19 18 17 17 16 16 16 16 15 15 15 14 14 14 13 13 13 12
2 3 2 3 7 7 7 8 9 9 7 8 10 7 2 2 14 23 22 21 20 15 16 22 24 24 23 22 21 21 20 19 18 17 17 17 16 16 15 15 14 14 14 13 13 12 12 12 11
2 3 1 4 7 8 7 5 8 9 10 10 10 8 3 8 19 21 20 18 19 19 15 20 24 24 23 22 22 21 20 19 18 17 17 16 16 15 15 14 14 14 13 12 12 11 10 10 9
4 2 4 5 7 7 4 5 8 9 10 8 11 8 4 8 15 18 17 16 16 17 15 15 20 22 23 22 22 21 20 19 19 18 17 16 16 15 14 14 14 13 12 11 10 9 8 8 7
5 2 4 4 6 6 3 3 7 10 7 9 8 10 8 11 15 17 16 15 14 14 14 13 15 17 18 19 21 21 20 19 18 18 17 16 15 15 14 13 13 12 12 10 9 8 7 6 6
3 1 6 6 6 6 4 2 3 5 8 5 3 6 10 18 19 18 16 14 13 13 11 12 12 13 15 16 19 20 20 19 18 17 17 16 13 13 12 12 12 12 11 10 8 7 5 4 4
5 5 10 9 8 7 4 1 4 5 6 4 4 6 14 19 20 20 20 19 18 16 13 12 13 12 13 15 15 14 15 15 14 14 14 13 12 11 11 12 12 11 10 9 7 5 4 3 2
6 9 11 14 15 8 3 1 2 9 4 6 11 14 16 17 19 19 19 19 19 18 16 13 13 12 11 8 11 10 10 11 12 13 13 12 11 9 9 8 8 8 8 6 5 4 2 2 1
6 11 12 12 11 5 3 2 2 4 6 10 16 19 19 18 18 18 18 18 16 17 16 15 14 12 10 10 9 9 8 8 8 11 13 10 7 6 7 6 6 6 5 4 4 3 2 2 2
8 10 13 13 9 6 2 1 3 2 6 12 14 16 16 15 13 13 14 16 17 17 16 16 15 13 11 9 7 8 8 8 10 11 12 12 7 5 6 6 6 6 5 5 4 3 2 2 2
8 10 13 11 9 4 2 3 3 4 9 13 15 14 15 15 14 13 15 16 18 18 16 14 14 13 12 9 8 7 8 9 9 10 11 13 11 8 6 4 5 5 6 6 5 5 3 2 2
7 10 12 9 6 4 1 4 3 7 11 12 14 14 13 12 13 15 17 17 18 16 15 15 15 13 14 11 9 7 8 9 7 8 11 12 11 10 7 5 4 5 7 7 5 4 3 2 2
7 6 7 10 7 6 2 6 6 7 10 11 12 13 12 11 12 13 15 14 14 14 14 15 16 14 13 11 8 7 7 8 7 9 10 11 12 11 8 5 4 6 6 5 3 3 3 2 2
4 4 8 12 9 5 3 4 5 6 8 10 10 11 10 9 9 11 13 14 14 15 15 14 13 14 13 10 7 6 6 6 8 9 8 10 11 11 8 4 4 6 5 3 4 3 3 3 2
7 7 9 12 8 3 2 3 4 6 9 10 11 11 10 10 9 10 11 13 13 12 12 12 13 13 12 9 7 5 5 5 7 7 8 10 10 10 8 5 5 6 4 4 4 4 3 3 3
9 12 15 16 11 3 3 3 5 7 9 11 10 10 10 8 6 8 10 12 12 12 12 13 14 13 12 9 8 7 6 6 6 6 9 10 10 10 8 4 4 4 5 5 5 4 3 2 2
13 14 14 12 8 2 1 1 1 4 7 11 14 12 11 9 8 9 9 10 11 12 13 13 14 14 12 10 8 6 6 5 5 5 7 10 9 9 8 6 5 5 5 5 4 4 3 1 2
15 12 10 9 6 4 2 5 3 1 2 6 9 11 12 13 14 12 11 10 11 12 14 14 13 13 11 10 7 6 5 4 3 4 5 6 9 9 8 7 5 5 5 5 4 4 5 2 1
14 15 10 7 3 4 1 2 5 3 1 1 4 7 10 11 11 12 12 11 11 11 12 12 12 11 11 10 10 11 8 6 6 5 5 5 7 8 9 8 7 5 5 5 4 4 4 4 2
13 12 7 4 0 2 4 2 5 3 1 3 2 6 8 8 10 11 11 11 10 10 11 11 11 10 10 10 10 10 7 5 5 5 6 5 4 6 8 8 6 5 5 5 5 5 4 4 3
10 4 5 5 5 2 4 2 5 3 4 4 2 5 7 8 9 10 9 8 8 9 9 10 11 9 10 10 10 9 10 9 8 7 7 5 4 4 6 7 6 5 5 5 5 5 6 4 3
4 2 3 5 5 5 4 2 6 6 5 4 3 5 8 9 10 11 11 10 10 10 10 10 11 10 10 10 10 9 10 11 11 9 8 7 4 4 5 5 5 5 5 5 5 5 5 4 4
7 9 8 6 6 5 2 3 6 6 5 3 3 5 7 10 11 12 12 12 11 11 11 11 11 10 10 10 10 9 9 8 7 8 7 7 6 5 6 6 6 6 6 6 5 4 4 4 3
7 7 11 8 3 1 3 5 6 3 3 2 1 3 6 10 12 12 12 11 11 11 11 11 12 10 10 10 9 9 9 9 9 8 7 6 6 6 7 7 6 6 6 6 5 4 3 3 3
10 8 6 6 4 2 3 3 5 5 4 2 4 5 6 8 10 11 11 11 10 10 10 10 10 11 9 9 9 9 8 9 9 9 9 8 8 7 8 7 7 6 6 6 5 4 3 4 3
0 3 5 5 6 7 4 6 7 9 8 7 7 6 8 10 11 11 10 11 10 9 10 9 9 9 8 9 8 8 8 8 8 8 9 9 8 8 9 8 8 7 6 6 5 4 4 4 2
3 3 6 4 4 5 5 6 5 7 7 8 7 7 8 9 9 10 10 10 10 10 9 9 9 9 9 9 9 8 8 8 8 8 8 9 9 8 8 8 7 7 6 6 6 5 4 4 3
Wind_Direction
192 196 185 327 32 25 276 238 137 101 74 78 89 95 99 101 138 153 136 140 137 143 148 148 146 144 141 137 134 130 128 125 122 120 118 116 114 114 114 114 115 114 114 114 113 112 111 111 112
181 196 119 34 54 338 279 202 123 127 127 111 97 98 89 76 97 116 125 141 140 142 145 147 146 144 142 140 138 135 132 130 127 126 124 122 120 118 118 117 117 117 116 116 116 115 114 114 114
196 191 96 57 292 239 267 229 150 137 127 118 103 80 91 119 123 131 143 142 138 140 144 148 146 145 143 142 141 138 136 134 133 131 129 127 124 122 120 119 119 119 119 118 118 118 117 116 116
138 68 47 72 263 256 241 248 168 136 109 106 109 84 74 124 137 138 141 143 140 142 145 149 147 146 145 144 143 142 141 139 138 136 134 131 128 125 123 122 122 122 122 121 121 120 120 119 118
103 94 42 293 273 278 260 215 174 136 125 115 109 112 90 68 121 135 144 146 143 143 146 149 148 147 147 146 146 145 144 143 142 139 137 134 131 128 127 126 125 125 124 124 124 124 124 122 121
71 90 67 278 277 282 267 190 143 118 121 125 119 127 132 128 133 142 146 148 147 146 147 149 150 149 149 149 149 148 147 146 144 142 140 137 135 134 133 131 129 128 128 129 129 128 127 123 119
156 147 223 252 282 282 256 173 144 132 137 151 139 124 134 145 143 142 143 145 146 148 148 150 152 152 153 152 152 151 150 149 147 146 144 142 141 139 138 137 136 134 133 134 134 134 131 125 116
169 126 266 260 268 274 257 157 138 136 140 137 133 142 167 166 146 140 139 143 145 149 151 149 150 151 153 155 155 154 153 152 150 149 149 148 147 146 144 142 141 140 140 140 140 139 136 128 118
153 126 253 248 251 272 274 103 113 103 118 126 136 161 158 146 141 138 139 142 148 153 154 152 151 150 151 154 158 156 156 157 154 154 154 150 147 148 149 152 150 148 146 144 144 145 142 128 113
151 197 240 239 252 277 281 128 130 110 104 92 87 101 134 142 145 150 154 158 159 162 161 159 156 154 153 159 156 157 158 158 156 157 155 151 153 158 159 162 157 155 153 151 152 153 150 131 109
194 219 252 264 264 263 277 324 103 132 147 172 157 148 148 150 153 159 163 165 164 163 163 164 161 159 160 154 154 155 154 157 161 162 160 160 161 164 161 159 158 158 158 156 164 160 161 158 170
250 265 268 270 278 278 242 187 121 164 180 167 156 154 157 160 163 167 166 164 162 166 168 166 165 164 162 155 160 159 160 166 169 171 169 164 158 158 160 160 165 166 165 167 171 173 202 224 219
267 279 285 281 285 278 271 235 159 166 143 136 141 149 156 162 167 165 162 164 166 171 171 169 166 166 162 155 165 165 166 172 174 174 174 167 161 161 165 168 175 179 176 172 173 180 187 177 142
274 293 300 292 286 270 239 259 134 191 148 140 142 152 162 163 163 159 164 169 171 172 170 172 170 167 159 159 164 164 168 168 168 169 174 170 164 162 161 162 169 178 177 169 166 164 154 144 128
307 315 314 300 296 285 18 312 225 185 153 147 151 157 164 167 166 168 171 171 172 170 168 171 171 166 159 160 165 162 164 160 159 162 165 164 160 157 154 153 160 169 164 157 147 137 127 126 122
334 328 309 296 302 280 186 254 257 183 153 150 155 157 163 170 176 166 164 165 165 163 166 172 172 164 159 159 159 159 159 156 154 156 157 159 155 152 148 147 156 158 147 138 128 121 111 116 123
334 298 286 295 291 278 180 229 238 190 158 156 154 153 162 166 167 161 159 161 164 165 166 169 164 160 157 154 152 149 148 150 152 152 155 156 152 151 148 149 154 143 128 124 140 124 130 130 130
258 274 283 284 289 301 242 223 204 175 158 157 153 153 165 175 176 163 155 158 160 161 164 164 159 157 152 145 138 133 140 148 147 154 163 158 155 153 149 150 145 134 123 124 123 123 118 136 149
256 275 280 282 283 272 216 209 205 178 152 155 156 156 162 173 160 153 154 155 155 157 162 165 162 159 154 153 153 152 157 159 158 166 165 160 159 158 150 144 135 133 137 145 134 120 110 98 110
262 269 275 286 292 291 200 257 231 176 172 169 164 164 160 157 153 160 159 159 162 163 164 162 163 163 163 162 158 153 151 160 164 161 162 164 162 160 157 145 147 141 135 131 128 123 117 93 122
264 257 258 270 302 355 27 347 332 288 141 153 165 163 162 166 167 169 166 166 165 167 169 167 166 166 163 155 142 133 123 121 134 151 163 170 164 159 154 154 149 145 142 148 153 141 135 133 61
258 257 255 273 310 302 2 279 299 295 357 137 166 165 167 169 172 168 164 164 170 168 162 159 162 163 160 153 152 155 159 163 175 170 167 163 159 157 153 150 148 147 147 154 167 148 139 134 126
242 249 252 263 164 7 360 109 284 328 316 290 218 180 173 174 175 167 162 166 167 161 159 160 161 162 159 158 159 160 160 162 158 154 153 156 159 161 155 150 146 146 149 156 151 137 133 133 139
251 287 347 34 67 353 275 185 270 266 236 258 264 194 184 183 172 162 159 157 163 164 163 163 164 165 164 163 164 165 163 162 159 162 164 162 156 159 158 151 147 149 150 156 153 145 141 139 134
257 116 4 342 356 262 266 162 242 253 238 208 220 204 191 187 171 164 163 169 173 172 170 167 168 170 171 170 172 172 169 167 170 170 170 165 162 168 175 158 154 156 158 155 145 139 141 145 143
226 154 169 207 230 261 306 221 248 257 262 239 219 191 186 178 172 169 172 175 177 175 171 170 173 174 176 177 179 176 173 171 173 173 169 172 175 180 173 162 160 159 157 154 145 143 153 149 151
202 197 175 152 174 191 281 284 296 272 313 358 86 145 173 176 173 172 173 175 176 176 177 177 176 177 181 181 177 175 175 173 174 173 171 172 175 177 167 164 164 164 161 157 150 151 166 153 159
183 172 109 126 158 223 269 267 248 259 252 193 173 173 177 176 173 174 176 176 177 176 175 176 178 182 182 179 177 176 174 173 171 167 170 170 172 169 164 169 170 170 163 157 150 154 164 156 169
128 137 130 135 154 156 209 256 222 211 206 194 190 187 182 174 173 177 177 174 170 167 169 175 177 175 177 175 172 169 169 167 163 166 170 170 169 169 171 174 170 168 165 163 160 170 166 168 180
142 159 140 151 226 166 168 255 257 205 195 186 189 188 173 170 168 168 170 165 165 166 170 175 177 176 175 170 165 166 165 163 162 167 168 166 165 170 168 163 162 168 168 166 164 171 162 163 171
Height
1511 1511 1510 1510 1511 1517 1515 1499 1489 1487 1487 1488 1488 1491 1494 1498 1503 1510 1506 1507 1511 1515 1518 1521 1524 1526 1527 1529 1530 1532 1533 1534 1535 1537 1538 1539 1540 1541 1542 1543 1544 1545 1546 1547 1548 1548 1549 1550 1551
1512 1511 1511 1510 1517 1526 1513 1493 1489 1486 1486 1488 1491 1493 1495 1499 1499 1501 1504 1508 1512 1515 1518 1521 1524 1526 1527 1529 1531 1532 1534 1535 1536 1538 1539 1540 1541 1542 1543 1544 1545 1546 1548 1549 1549 1550 1551 1552 1553
1512 1512 1513 1514 1519 1521 1508 1491 1486 1484 1484 1486 1491 1494 1496 1500 1500 1502 1504 1508 1512 1515 1518 1521 1524 1526 1528 1529 1531 1533 1534 1536 1537 1539 1540 1541 1542 1544 1545 1546 1547 1548 1549 1550 1551 1552 1553 1554 1555
1512 1513 1513 1519 1519 1505 1495 1488 1483 1483 1486 1486 1490 1495 1498 1500 1500 1501 1505 1509 1512 1515 1518 1521 1523 1526 1528 1530 1532 1533 1535 1537 1538 1540 1541 1542 1544 1545 1546 1547 1548 1549 1551 1552 1553 1554 1555 1556 1557
1512 1513 1518 1521 1512 1496 1485 1481 1482 1482 1485 1488 1489 1495 1498 1499 1499 1501 1504 1508 1510 1514 1518 1521 1523 1525 1528 1530 1532 1534 1535 1537 1539 1541 1542 1543 1545 1546 1547 1549 1550 1551 1552 1554 1555 1556 1557 1558 1559
1512 1512 1523 1523 1507 1491 1483 1479 1480 1482 1486 1487 1489 1493 1497 1498 1498 1501 1505 1508 1511 1513 1517 1520 1523 1525 1528 1530 1532 1534 1536 1538 1540 1541 1543 1544 1546 1547 1549 1550 1551 1552 1554 1555 1556 1558 1559 1560 1561
1511 1514 1519 1513 1504 1492 1481 1478 1478 1481 1484 1486 1486 1492 1496 1499 1499 1501 1505 1508 1511 1514 1516 1519 1522 1525 1528 1530 1532 1534 1536 1538 1540 1542 1544 1545 1547 1548 1550 1551 1552 1554 1555 1557 1558 1559 1561 1562 1563
1507 1511 1513 1509 1501 1491 1479 1477 1477 1478 1481 1485 1486 1489 1493 1496 1499 1501 1505 1508 1512 1514 1516 1518 1521 1524 1527 1530 1532 1534 1537 1539 1541 1542 1544 1546 1548 1549 1551 1552 1554 1555 1556 1558 1559 1561 1562 1563 1564
1506 1513 1515 1505 1496 1486 1477 1477 1478 1478 1480 1483 1484 1485 1487 1493 1498 1501 1504 1508 1511 1513 1516 1518 1520 1523 1527 1530 1532 1535 1537 1539 1541 1543 1545 1546 1548 1550 1551 1553 1555 1556 1557 1559 1560 1562 1563 1564 1566
1502 1512 1503 1490 1485 1481 1477 1475 1477 1480 1481 1482 1484 1486 1488 1492 1495 1497 1500 1504 1507 1510 1514 1517 1520 1522 1525 1529 1532 1534 1537 1539 1541 1543 1545 1547 1549 1551 1552 1554 1555 1557 1558 1560 1561 1563 1564 1565 1567
1496 1498 1488 1483 1479 1477 1475 1474 1474 1476 1480 1479 1481 1484 1488 1491 1493 1494 1497 1500 1503 1508 1512 1515 1519 1521 1524 1528 1531 1534 1536 1539 1541 1543 1545 1547 1549 1551 1553 1554 1556 1558 1559 1561 1562 1564 1565 1566 1568
1492 1487 1483 1479 1475 1474 1473 1473 1474 1474 1475 1475 1477 1480 1484 1488 1490 1492 1495 1498 1502 1506 1509 1513 1517 1520 1523 1527 1530 1533 1536 1538 1540 1543 1545 1547 1549 1551 1553 1555 1557 1558 1560 1561 1563 1564 1565 1567 1568
1488 1483 1479 1475 1472 1471 1471 1471 1472 1473 1473 1474 1477 1481 1483 1486 1489 1493 1495 1497 1500 1504 1508 1511 1515 1519 1522 1526 1529 1533 1535 1538 1540 1542 1545 1547 1549 1551 1553 1555 1557 1558 1560 1562 1563 1564 1566 1567 1568
1484 1481 1477 1472 1469 1468 1470 1471 1472 1473 1473 1474 1476 1479 1482 1484 1487 1490 1494 1495 1497 1501 1505 1510 1513 1517 1521 1525 1528 1532 1534 1537 1540 1542 1544 1547 1549 1551 1553 1555 1556 1558 1560 1562 1563 1565 1566 1567 1568
1482 1481 1476 1469 1467 1466 1468 1473 1471 1470 1472 1474 1476 1479 1481 1483 1485 1487 1490 1492 1494 1499 1503 1507 1511 1515 1519 1523 1527 1530 1534 1536 1539 1541 1544 1546 1548 1550 1552 1554 1556 1558 1559 1561 1563 1564 1566 1567 1568
1483 1485 1488 1472 1466 1464 1471 1482 1469 1470 1471 1473 1475 1478 1481 1482 1483 1485 1488 1490 1494 1498 1501 1505 1510 1514 1518 1521 1525 1528 1531 1535 1538 1540 1543 1546 1548 1550 1552 1554 1555 1557 1559 1561 1562 1564 1565 1567 1568
1492 1497 1492 1478 1464 1462 1468 1476 1468 1469 1470 1472 1474 1478 1480 1482 1482 1484 1486 1490 1493 1496 1499 1503 1507 1511 1515 1520 1524 1527 1530 1534 1536 1539 1542 1545 1547 1549 1551 1553 1555 1557 1558 1560 1562 1563 1565 1566 1568
1501 1496 1490 1482 1467 1463 1467 1471 1467 1467 1469 1472 1473 1476 1479 1481 1482 1484 1486 1489 1491 1494 1497 1501 1505 1510 1514 1518 1522 1526 1529 1532 1535 1538 1541 1543 1546 1548 1550 1552 1554 1556 1557 1559 1561 1563 1565 1566 1568
1488 1490 1489 1476 1463 1466 1469 1470 1466 1465 1468 1470 1472 1474 1476 1480 1482 1485 1487 1488 1490 1493 1496 1499 1502 1507 1511 1515 1519 1523 1526 1530 1533 1537 1539 1542 1544 1546 1548 1551 1553 1555 1556 1558 1560 1562 1564 1565 1567
1484 1488 1484 1473 1462 1465 1470 1471 1467 1466 1466 1466 1468 1472 1475 1478 1480 1483 1486 1487 1488 1491 1494 1497 1500 1504 1509 1513 1517 1521 1525 1529 1532 1535 1538 1540 1543 1545 1547 1549 1551 1553 1555 1557 1559 1561 1563 1564 1566
1480 1482 1478 1475 1466 1465 1471 1479 1474 1469 1468 1468 1468 1470 1472 1474 1475 1479 1483 1486 1488 1490 1492 1495 1499 1503 1507 1511 1515 1519 1523 1527 1531 1534 1536 1539 1541 1543 1546 1548 1550 1552 1554 1556 1558 1560 1562 1563 1565
1480 1466 1466 1467 1476 1485 1479 1498 1482 1474 1471 1470 1470 1471 1472 1474 1474 1476 1480 1484 1487 1488 1491 1494 1498 1502 1505 1509 1513 1516 1519 1523 1527 1531 1534 1537 1540 1542 1544 1547 1549 1551 1553 1555 1557 1559 1560 1562 1564
1466 1457 1460 1464 1474 1486 1484 1494 1490 1477 1477 1473 1471 1471 1473 1474 1475 1476 1479 1483 1486 1488 1490 1493 1497 1501 1503 1507 1511 1515 1518 1522 1526 1530 1533 1535 1538 1540 1543 1545 1547 1550 1552 1554 1555 1557 1559 1561 1563
1454 1458 1464 1473 1485 1500 1490 1493 1494 1483 1476 1471 1469 1470 1472 1474 1475 1476 1479 1483 1485 1488 1490 1493 1496 1499 1502 1506 1510 1513 1517 1520 1524 1527 1530 1533 1536 1539 1541 1543 1546 1548 1550 1552 1554 1556 1558 1560 1562
1454 1475 1497 1499 1508 1505 1488 1491 1491 1473 1467 1465 1466 1468 1469 1472 1474 1475 1478 1481 1484 1486 1489 1491 1494 1497 1500 1504 1507 1511 1515 1518 1521 1525 1528 1531 1534 1536 1539 1541 1544 1546 1549 1551 1553 1554 1556 1558 1560
1455 1470 1497 1507 1510 1503 1489 1492 1481 1466 1463 1460 1461 1464 1467 1469 1471 1474 1476 1479 1482 1485 1487 1490 1492 1495 1498 1501 1505 1509 1513 1516 1520 1523 1526 1529 1532 1535 1538 1540 1542 1545 1547 1549 1551 1553 1555 1557 1559
1452 1460 1465 1485 1491 1502 1498 1487 1473 1464 1461 1459 1461 1465 1466 1468 1470 1472 1476 1478 1481 1483 1486 1488 1490 1493 1496 1499 1503 1506 1510 1514 1517 1521 1525 1528 1531 1534 1536 1539 1541 1544 1546 1548 1550 1552 1554 1555 1557
1437 1445 1467 1482 1497 1504 1498 1492 1484 1469 1463 1460 1461 1464 1465 1467 1469 1472 1475 1477 1480 1482 1485 1487 1489 1492 1494 1497 1501 1504 1508 1512 1515 1519 1523 1526 1529 1532 1535 1537 1540 1542 1545 1547 1548 1550 1552 1554 1555
1441 1447 1459 1475 1481 1497 1505 1494 1463 1461 1459 1460 1461 1462 1464 1465 1467 1471 1473 1476 1479 1482 1484 1486 1488 1491 1493 1496 1499 1503 1506 1510 1514 1518 1521 1524 1527 1530 1533 1536 1539 1541 1543 1545 1547 1549 1550 1552 1553
1437 1445 1457 1475 1479 1482 1491 1486 1452 1453 1454 1455 1458 1459 1461 1464 1467 1470 1473 1475 1478 1481 1483 1485 1487 1490 1492 1495 1499 1502 1506 1509 1513 1516 1520 1523 1526 1529 1532 1535 1538 1540 1542 1544 1546 1547 1549 1550 1551